Location: Anciles
(42.5833°N, 0.5167°E)
Time: 14:48:18
(UTC+00:00)

Meteor 1-18 Rocket - Pass Details

Date: 10 December 2019
Orbit: 836 x 909 km, 81.2° (Epoch: 20 January)

Event Time Altitude Azimuth Distance (km) Brightness Sun altitude
Rises 18:19:15 0° 185° (S) 3,466 7.6 -20.4°
Reaches altitude 10° 18:21:42 10° 184° (S) 2,521 6.9 -20.8°
Maximum altitude 18:27:25 80° 98° (E) 881 4.1 -21.8°
Enters shadow 18:31:50 17° 13° (NNE) 2,020 5.9 -22.6°
